DW9145 Weather Reports


Display with metric or nautical units.
time (UTC)temp
F
wind
direction
speed
MPH
gust
MPH
rain 1hr
in
rain 24hr
in
rain mn
in
humidity
%
barometer
mb
20260503200504 70 286 3.0 13.0 0.00 0.00 0.00 26 1003.6
20260503200004 70 294 6.0 12.0 0.00 0.00 0.00 27 1003.5
20260503195504 70 345 5.0 12.0 0.00 0.00 0.00 28 1003.5
20260503195005 70 3 5.0 8.0 0.00 0.00 0.00 27 1003.6
20260503194004 69 107 3.0 12.0 0.00 0.00 0.00 25 1003.6
20260503193504 69 338 3.0 9.0 0.00 0.00 0.00 26 1003.8
20260503193004 70 353 5.0 9.0 0.00 0.00 0.00 26 1003.9
20260503192505 69 342 5.0 13.0 0.00 0.00 0.00 26 1003.9
20260503191504 69 323 5.0 9.0 0.00 0.00 0.00 30 1003.9
20260503191005 68 327 5.0 10.0 0.00 0.00 0.00 31 1004.0
20260503190505 68 235 5.0 12.0 0.00 0.00 0.00 30 1004.2
20260503190005 69 310 6.0 12.0 0.00 0.00 0.00 28 1004.0
20260503185504 69 338 3.0 13.0 0.00 0.00 0.00 28 1004.1
20260503185004 69 284 2.0 13.0 0.00 0.00 0.00 30 1004.1
20260503184504 69 246 5.0 12.0 0.00 0.00 0.00 34 1004.1
20260503184005 69 21 2.0 12.0 0.00 0.00 0.00 33 1004.1
20260503183004 69 261 3.0 10.0 0.00 0.00 0.00 32 1004.2
20260503182505 69 271 3.0 8.0 0.00 0.00 0.00 32 1004.3
20260503182005 69 357 5.0 12.0 0.00 0.00 0.00 29 1004.4
20260503181505 68 41 5.0 12.0 0.00 0.00 0.00 31 1004.4
20260503181005 68 30 6.0 13.0 0.00 0.00 0.00 33 1004.5
20260503180504 68 9 3.0 12.0 0.00 0.00 0.00 35 1004.5
20260503180005 68 355 5.0 12.0 0.00 0.00 0.00 35 1004.5
20260503175504 68 310 5.0 16.0 0.00 0.00 0.00 31 1004.4
20260503175005 69 327 3.0 12.0 0.00 0.00 0.00 34 1004.4
20260503174505 68 204 2.0 8.0 0.00 0.00 0.00 33 1004.6
20260503174005 68 358 6.0 12.0 0.00 0.00 0.00 34 1004.5
20260503173504 68 14 2.0 6.0 0.00 0.00 0.00 37 1004.6
20260503173004 68 307 2.0 9.0 0.00 0.00 0.00 37 1004.6
20260503172004 67 313 2.0 10.0 0.00 0.00 0.00 42 1004.7
20260503171505 66 353 5.0 13.0 0.00 0.00 0.00 38 1004.7
20260503170504 67 331 3.0 12.0 0.00 0.00 0.00 40 1004.8
20260503151004 62 250 2.0 7.0 0.00 0.00 0.00 51 1005.1
20260503150505 61 358 1.0 6.0 0.00 0.00 0.00 52 1005.2
20260503131004 54 247 4.0 7.0 0.00 0.00 0.00 62 1005.3
20260503130504 54 229 1.0 7.0 0.00 0.00 0.00 63 1005.3
20260503110504 47 178 0.0 0.0 0.00 0.00 0.00 80 1005.0
20260503090504 48 175 0.0 0.0 0.00 0.00 0.00 79 1006.0
20260503081504 49 217 0.0 0.0 0.00 0.00 0.00 79 1006.3
20260503081004 49 217 0.0 0.0 0.00 0.00 0.00 78 1006.4
20260503080504 49 217 0.0 0.0 0.00 0.00 0.00 78 1006.3
20260503072504 52 217 0.0 0.0 0.00 0.00 0.00 75 1007.1
20260503072004 52 217 0.0 0.0 0.00 0.00 0.00 75 1007.3
20260503071504 52 217 0.0 0.0 0.00 0.00 0.00 75 1007.5
20260503071005 52 217 0.0 0.0 0.00 0.00 0.00 75 1007.8
20260503070504 53 217 0.0 0.0 0.00 0.00 0.00 73 1008.0
20260503055005 56 227 0.0 2.0 0.00 0.00 0.00 58 1008.3
20260503054504 56 226 0.0 2.0 0.00 0.00 0.00 54 1008.5
20260503054004 56 227 1.0 3.0 0.00 0.00 0.00 55 1008.5
20260503053504 56 256 0.0 1.0 0.00 0.00 0.00 54 1008.5
20260503053004 56 255 0.0 3.0 0.00 0.00 0.00 55 1008.6
20260503052504 56 246 1.0 6.0 0.00 0.00 0.00 55 1008.6
20260503052004 56 250 0.0 1.0 0.00 0.00 0.00 54 1008.6
20260503051504 56 252 0.0 1.0 0.00 0.00 0.00 55 1008.6
20260503045504 54 238 0.0 0.0 0.00 0.00 0.00 61 1008.7
20260503045004 54 238 0.0 1.0 0.00 0.00 0.00 62 1008.6
20260503044503 54 238 0.0 3.0 0.00 0.00 0.00 62 1008.6
20260503043504 55 228 0.0 0.0 0.00 0.00 0.00 59 1008.6
20260503043004 55 228 0.0 0.0 0.00 0.00 0.00 58 1008.7
20260503042504 56 228 0.0 0.0 0.00 0.00 0.00 56 1008.7
20260503042004 56 228 0.0 0.0 0.00 0.00 0.00 55 1008.7
20260503041504 56 228 0.0 0.0 0.00 0.00 0.00 56 1008.7
20260503041004 57 228 0.0 0.0 0.00 0.00 0.00 54 1008.8
20260503040504 57 228 0.0 0.0 0.00 0.00 0.00 52 1008.8
20260503040004 58 228 0.0 0.0 0.00 0.00 0.00 52 1008.7
20260503035504 58 228 0.0 1.0 0.00 0.00 0.00 50 1008.9
20260503035004 58 228 0.0 3.0 0.00 0.00 0.00 50 1009.0
20260503034504 58 251 0.0 3.0 0.00 0.00 0.00 50 1009.1
20260503034004 58 248 5.0 9.0 0.00 0.00 0.00 49 1009.1
20260503033504 58 228 2.0 6.0 0.00 0.00 0.00 49 1009.2
20260503032503 58 266 1.0 3.0 0.00 0.00 0.00 49 1009.3
20260503032004 58 346 2.0 5.0 0.00 0.00 0.00 49 1009.3
20260503031003 58 210 5.0 12.0 0.00 0.00 0.00 49 1009.5
20260503030505 57 224 2.0 9.0 0.00 0.00 0.00 49 1009.4
20260503025505 56 241 2.0 9.0 0.00 0.00 0.00 50 1009.6
20260503025004 56 183 0.0 2.0 0.00 0.00 0.00 51 1009.6
20260503024504 56 257 0.0 2.0 0.00 0.00 0.00 49 1009.6
20260503023504 56 261 1.0 3.0 0.00 0.00 0.00 48 1009.6
20260503023005 55 234 1.0 3.0 0.00 0.00 0.00 51 1009.7
20260503022504 55 253 1.0 3.0 0.00 0.00 0.00 52 1009.6
20260503022004 55 254 0.0 1.0 0.00 0.00 0.00 52 1009.8
20260503021005 55 254 0.0 0.0 0.00 0.00 0.00 49 1009.5
20260503020505 56 254 0.0 1.0 0.00 0.00 0.00 47 1009.5
20260503020005 56 260 0.0 1.0 0.00 0.00 0.00 49 1009.5
20260503015505 55 265 0.0 1.0 0.00 0.00 0.00 48 1009.5
20260503015005 55 266 1.0 3.0 0.00 0.00 0.00 46 1009.5
20260503014505 55 233 0.0 1.0 0.00 0.00 0.00 49 1009.5
20260503014005 56 232 0.0 2.0 0.00 0.00 0.00 48 1009.6
20260503013505 56 237 1.0 3.0 0.00 0.00 0.00 47 1009.5
20260503013005 56 237 1.0 3.0 0.00 0.00 0.00 45 1009.6
20260503012505 56 228 0.0 2.0 0.00 0.00 0.00 46 1009.6
20260503012005 57 227 0.0 0.0 0.00 0.00 0.00 46 1009.6
20260503011505 57 227 0.0 1.0 0.00 0.00 0.00 45 1009.6
20260503011006 57 228 0.0 3.0 0.00 0.00 0.00 43 1009.6
20260503005005 59 251 0.0 1.0 0.00 0.00 0.00 40 1009.8
20260503004506 59 252 1.0 3.0 0.00 0.00 0.00 40 1009.8
20260503004005 59 259 1.0 3.0 0.00 0.00 0.00 41 1009.8
20260503003505 59 226 2.0 3.0 0.00 0.00 0.00 39 1009.9
20260503003005 59 241 1.0 3.0 0.00 0.00 0.00 40 1009.9
20260503002505 59 259 2.0 5.0 0.00 0.00 0.00 38 1010.2
20260503002005 59 271 1.0 3.0 0.00 0.00 0.00 39 1010.2
20260503001505 60 257 0.0 3.0 0.00 0.00 0.00 39 1010.1
20260503001005 60 261 1.0 3.0 0.00 0.00 0.00 38 1010.2
20260503000505 60 256 1.0 3.0 0.00 0.00 0.00 39 1010.3
20260503000005 60 261 2.0 5.0 0.00 0.00 0.00 39 1010.3
20260502235505 60 230 3.0 7.0 0.00 0.00 0.00 37 1010.4
20260502235006 60 244 1.0 5.0 0.00 0.00 0.00 38 1010.5
20260502234505 60 231 2.0 3.0 0.00 0.00 0.00 36 1010.5
20260502234005 60 293 4.0 7.0 0.00 0.00 0.00 36 1010.5
20260502233505 60 264 4.0 8.0 0.00 0.00 0.00 36 1010.5
20260502233005 60 271 2.0 5.0 0.00 0.00 0.00 38 1010.5
20260502232504 60 264 2.0 5.0 0.00 0.00 0.00 37 1010.7
20260502231505 60 241 3.0 8.0 0.00 0.00 0.00 37 1010.8
20260502231005 60 235 3.0 7.0 0.00 0.00 0.00 36 1010.9
20260502230505 60 242 3.0 7.0 0.00 0.00 0.00 36 1010.9
20260502230005 60 243 3.0 7.0 0.00 0.00 0.00 37 1011.0
20260502225005 61 234 3.0 5.0 0.00 0.00 0.00 35 1011.0
20260502224505 61 267 2.0 5.0 0.00 0.00 0.00 36 1011.0
20260502224005 61 263 2.0 9.0 0.00 0.00 0.00 35 1011.2
20260502223005 62 230 3.0 10.0 0.00 0.00 0.00 34 1011.2
20260502222505 63 237 6.0 10.0 0.00 0.00 0.00 33 1011.2
20260502221505 62 226 3.0 8.0 0.00 0.00 0.00 35 1011.2
20260502221005 62 256 3.0 9.0 0.00 0.00 0.00 34 1011.3
20260502220505 62 225 3.0 7.0 0.00 0.00 0.00 35 1011.4
20260502220005 62 277 4.0 9.0 0.00 0.00 0.00 34 1011.3
20260502215506 62 208 2.0 7.0 0.00 0.00 0.00 35 1011.4
20260502215005 62 236 2.0 8.0 0.00 0.00 0.00 33 1011.4
20260502214505 62 225 5.0 13.0 0.00 0.00 0.00 33 1011.6
20260502214005 62 242 3.0 12.0 0.00 0.00 0.00 32 1011.6
20260502213506 62 247 2.0 7.0 0.00 0.00 0.00 35 1011.7
20260502213005 62 285 3.0 7.0 0.00 0.00 0.00 33 1011.7
20260502212506 61 265 3.0 6.0 0.00 0.00 0.00 34 1011.8
20260502212005 61 249 2.0 8.0 0.00 0.00 0.00 34 1011.8
20260502211505 61 19 5.0 17.0 0.00 0.00 0.00 32 1011.8
20260502211005 61 195 2.0 7.0 0.00 0.00 0.00 33 1011.8
20260502210505 61 258 3.0 9.0 0.00 0.00 0.00 33 1011.9
20260502210005 61 242 3.0 8.0 0.00 0.00 0.00 31 1012.0
20260502205504 61 238 5.0 12.0 0.00 0.00 0.00 33 1012.1
20260502204505 60 222 1.0 8.0 0.00 0.00 0.00 30 1012.4
20260502204005 61 248 6.0 14.0 0.00 0.00 0.00 31 1012.4
20260502203505 62 245 2.0 8.0 0.00 0.00 0.00 29 1012.4
20260502203005 61 256 3.0 8.0 0.00 0.00 0.00 30 1012.5
20260502202504 61 228 4.0 12.0 0.00 0.00 0.00 31 1012.6
20260502202005 61 334 2.0 8.0 0.00 0.00 0.00 32 1012.6